Weather in Leshan

China     29°34′19″N   103°43′56″E
temp.,
°C
wind,
m/s
gust,
m/s
humid.,
%
clouds,
%
prec.,
mm/h
press.,
hPa
HPBL,
m
14 may, fri
fri1423:00+23w1181100 0.1 100011
02:00+22wsw1183100 0.2 99911
05:00+22ese008596 0.1 99811
08:00+23nw118466 1.0 99965
11:00+25n227340 2.1 999861
14:00+26nne2268100 4.1 997949
17:00+27n1269100 0.6 995792
20:00+24nw2582100 1.3 997114
15 may, sat
sat1523:00+22wnw3689100 0.9 998199
02:00+21nw2596100 7.6 998282
05:00+21nnw3895100 7.1 998426
08:00+18nnw3890100 8.3 1002512
11:00+18nw3583100 0.4 1005320
14:00+19ssw2379100 0.4 1006229
17:00+18s3680100 0.0 1006218
20:00+18s2680100 0.0 1008155
16 may, sun
sun1623:00+18s3778100 0.0 1010161
02:00+18ssw2475100 0.0 100989
05:00+18s2572100 0.0 1008106
08:00+18ssw2768100 0.0 1011117
11:00+23s265283 0.0 1012343
14:00+27sse453413 0.0 10111840
17:00+26se4641100 0.0 10091521
20:00+21ese2361100 0.0 101258
17 may, mon
mon1723:00+19sse116698 0.0 101411
02:00+19ssw1171100 0.0 101312
05:00+18s1174100 0.0 101220
08:00+18sse1176100 0.0 101324
11:00+23ese22547 0.0 1013709
14:00+27se33405 0.0 10101434
17:00+26ese4442100 0.0 10081384
20:00+21se2264100 0.0 100935
18 may, tue
tue1823:00+21ssw1166100 0.0 101111
02:00+20nw1170100 0.0 101011
05:00+19e0176100 0.1 101012
08:00+19nw1177100 0.7 101313
11:00+19se1182100 1.2 101464
14:00+25sse115953 1.3 10111239
17:00+25se2152100 0.0 10081548
20:00+21se2472100 0.0 100990